| time (UTC) | temp F | wind direction | speed knots | gust knots | rain 1hr in | rain 24hr in | rain mn in | humidity % | barometer mb |
| 20260507060550 | 51 | 0 | 0.0 | 0.9 | 0.11 | 0.48 | 0.20 | 97 | 1011.3 |
| 20260507060104 | 51 | 0 | 0.0 | 0.9 | 0.12 | 0.47 | 0.19 | 97 | 1011.2 |
| 20260507055550 | 51 | 0 | 0.0 | 0.9 | 0.14 | 0.47 | 0.19 | 97 | 1011.2 |
| 20260507055050 | 51 | 0 | 0.0 | 1.7 | 0.13 | 0.46 | 0.18 | 97 | 1011.2 |
| 20260507054556 | 51 | 0 | 0.0 | 1.7 | 0.13 | 0.46 | 0.18 | 97 | 1011.0 |
| 20260507054050 | 51 | 352 | 0.0 | 0.9 | 0.13 | 0.46 | 0.18 | 97 | 1010.9 |
| 20260507053551 | 51 | 0 | 0.0 | 1.7 | 0.13 | 0.45 | 0.17 | 97 | 1011.3 |
| 20260507053059 | 51 | 0 | 0.0 | 1.7 | 0.14 | 0.45 | 0.17 | 97 | 1011.5 |
| 20260507052554 | 51 | 352 | 0.0 | 2.6 | 0.14 | 0.44 | 0.16 | 97 | 1011.3 |
| 20260507052051 | 51 | 5 | 0.0 | 5.2 | 0.12 | 0.42 | 0.14 | 96 | 1011.6 |
| 20260507051552 | 51 | 31 | 0.0 | 5.2 | 0.11 | 0.40 | 0.12 | 96 | 1011.4 |
| 20260507051050 | 52 | 5 | 0.9 | 4.3 | 0.09 | 0.38 | 0.10 | 96 | 1011.6 |
| 20260507050547 | 52 | 15 | 0.0 | 2.6 | 0.08 | 0.37 | 0.09 | 96 | 1011.6 |
| 20260507050055 | 52 | 0 | 0.0 | 0.9 | 0.07 | 0.35 | 0.07 | 96 | 1011.4 |
| 20260507045554 | 52 | 0 | 0.0 | 0.9 | 0.07 | 0.33 | 0.05 | 96 | 1011.3 |
| 20260507045051 | 52 | 0 | 0.0 | 0.9 | 0.08 | 0.33 | 0.05 | 96 | 1011.4 |
| 20260507044601 | 52 | 0 | 0.0 | 0.9 | 0.08 | 0.33 | 0.05 | 95 | 1011.1 |
| 20260507044051 | 53 | 0 | 0.0 | 0.9 | 0.08 | 0.33 | 0.05 | 95 | 1010.9 |
| 20260507043551 | 53 | 0 | 0.0 | 0.9 | 0.07 | 0.32 | 0.04 | 95 | 1011.0 |
| 20260507043056 | 53 | 0 | 0.0 | 2.6 | 0.06 | 0.31 | 0.03 | 94 | 1011.1 |
| 20260507042552 | 53 | 0 | 0.0 | 2.6 | 0.05 | 0.30 | 0.02 | 94 | 1011.1 |
| 20260507042050 | 53 | 5 | 0.0 | 0.9 | 0.05 | 0.30 | 0.02 | 93 | 1010.8 |
| 20260507041553 | 53 | 0 | 0.0 | 1.7 | 0.04 | 0.29 | 0.01 | 92 | 1010.9 |
| 20260507041050 | 53 | 0 | 0.0 | 1.7 | 0.04 | 0.29 | 0.01 | 92 | 1010.9 |
| 20260507040550 | 54 | 352 | 0.0 | 5.2 | 0.04 | 0.29 | 0.01 | 90 | 1010.7 |
| 20260507040055 | 54 | 347 | 0.9 | 7.8 | 0.03 | 0.28 | 0.00 | 88 | 1010.6 |
| 20260507035551 | 55 | 352 | 0.9 | 8.7 | 0.01 | 0.26 | 0.26 | 86 | 1010.8 |
| 20260507035051 | 56 | 344 | 1.7 | 12.2 | 0.00 | 0.25 | 0.25 | 85 | 1010.7 |
| 20260507034613 | 56 | 0 | 1.7 | 12.2 | 0.00 | 0.25 | 0.25 | 85 | 1010.7 |
| 20260507034050 | 56 | 24 | 1.7 | 12.2 | 0.00 | 0.25 | 0.25 | 84 | 1010.5 |
| 20260507033552 | 57 | 0 | 0.9 | 4.3 | 0.00 | 0.25 | 0.25 | 86 | 1010.3 |
| 20260507033055 | 57 | 0 | 0.9 | 9.6 | 0.00 | 0.25 | 0.25 | 86 | 1010.6 |
| 20260507032555 | 57 | 28 | 0.9 | 9.6 | 0.00 | 0.25 | 0.25 | 85 | 1010.4 |
| 20260507032051 | 57 | 349 | 0.9 | 9.6 | 0.00 | 0.25 | 0.25 | 85 | 1010.5 |
| 20260507031554 | 57 | 40 | 0.9 | 7.0 | 0.00 | 0.25 | 0.25 | 85 | 1010.5 |
| 20260507031050 | 57 | 346 | 0.9 | 7.0 | 0.00 | 0.25 | 0.25 | 85 | 1010.7 |
| 20260507030553 | 57 | 333 | 0.0 | 4.3 | 0.00 | 0.25 | 0.25 | 86 | 1010.3 |
| 20260507030101 | 58 | 0 | 0.0 | 7.8 | 0.00 | 0.25 | 0.25 | 86 | 1010.3 |
| 20260507025550 | 58 | 352 | 0.9 | 7.8 | 0.00 | 0.25 | 0.25 | 86 | 1010.4 |
| 20260507025052 | 58 | 0 | 1.7 | 8.7 | 0.00 | 0.25 | 0.25 | 87 | 1010.3 |
| 20260507024556 | 58 | 11 | 0.9 | 10.4 | 0.00 | 0.25 | 0.25 | 86 | 1010.3 |
| 20260507024051 | 59 | 340 | 2.6 | 10.4 | 0.01 | 0.25 | 0.25 | 87 | 1010.3 |
| 20260507023551 | 59 | 360 | 0.9 | 5.2 | 0.01 | 0.25 | 0.25 | 87 | 1009.9 |
| 20260507023054 | 59 | 360 | 0.0 | 3.5 | 0.01 | 0.25 | 0.25 | 87 | 1009.9 |
| 20260507022551 | 59 | 13 | 0.0 | 3.5 | 0.01 | 0.25 | 0.25 | 87 | 1010.1 |
| 20260507022051 | 58 | 24 | 0.0 | 3.5 | 0.01 | 0.25 | 0.25 | 89 | 1009.9 |
| 20260507021551 | 58 | 0 | 0.0 | 2.6 | 0.01 | 0.25 | 0.25 | 89 | 1009.9 |
| 20260507021051 | 58 | 0 | 0.0 | 2.6 | 0.01 | 0.25 | 0.25 | 90 | 1009.9 |
| 20260507020551 | 58 | 0 | 0.0 | 2.6 | 0.01 | 0.25 | 0.25 | 90 | 1010.1 |
| 20260507020053 | 59 | 0 | 0.0 | 2.6 | 0.01 | 0.25 | 0.25 | 89 | 1010.0 |
| 20260507015551 | 59 | 342 | 0.0 | 3.5 | 0.01 | 0.25 | 0.25 | 89 | 1010.2 |
| 20260507015051 | 59 | 0 | 0.0 | 3.5 | 0.01 | 0.25 | 0.25 | 87 | 1010.2 |
| 20260507014554 | 60 | 0 | 0.0 | 1.7 | 0.01 | 0.25 | 0.25 | 86 | 1010.1 |
| 20260507014051 | 60 | 18 | 0.0 | 6.1 | 0.00 | 0.24 | 0.24 | 85 | 1010.3 |
| 20260507013551 | 60 | 0 | 0.0 | 6.1 | 0.00 | 0.24 | 0.24 | 84 | 1010.3 |
| 20260507013100 | 60 | 0 | 0.0 | 6.1 | 0.01 | 0.24 | 0.24 | 85 | 1010.4 |
| 20260507012550 | 60 | 0 | 0.0 | 4.3 | 0.01 | 0.24 | 0.24 | 86 | 1010.2 |
| 20260507012052 | 61 | 21 | 0.0 | 4.3 | 0.01 | 0.24 | 0.24 | 89 | 1010.2 |
| 20260507011557 | 61 | 0 | 0.0 | 2.6 | 0.01 | 0.24 | 0.24 | 89 | 1010.1 |
| 20260507011052 | 61 | 287 | 0.0 | 3.5 | 0.01 | 0.24 | 0.24 | 89 | 1009.9 |
| 20260507010617 | 61 | 0 | 0.0 | 3.5 | 0.01 | 0.24 | 0.24 | 90 | 1009.9 |
| 20260507010052 | 61 | 307 | 0.0 | 1.7 | 0.01 | 0.24 | 0.24 | 90 | 1009.9 |
| 20260507005551 | 61 | 13 | 0.0 | 6.1 | 0.01 | 0.24 | 0.24 | 90 | 1009.5 |
| 20260507005051 | 61 | 0 | 0.0 | 6.1 | 0.01 | 0.24 | 0.24 | 90 | 1009.5 |
| 20260507004556 | 62 | 14 | 0.0 | 5.2 | 0.01 | 0.24 | 0.24 | 89 | 1009.4 |
| 20260507004052 | 62 | 338 | 0.0 | 4.3 | 0.01 | 0.24 | 0.24 | 88 | 1009.5 |
| 20260507003552 | 63 | 24 | 0.0 | 7.8 | 0.01 | 0.24 | 0.24 | 88 | 1009.4 |
| 20260507003053 | 63 | 337 | 0.9 | 7.8 | 0.00 | 0.23 | 0.23 | 87 | 1009.5 |
| 20260507002550 | 64 | 15 | 0.0 | 5.2 | 0.00 | 0.23 | 0.23 | 88 | 1009.4 |
| 20260507002049 | 65 | 304 | 0.9 | 6.1 | 0.00 | 0.23 | 0.23 | 91 | 1009.2 |
| 20260507001551 | 65 | 0 | 0.9 | 6.1 | 0.00 | 0.23 | 0.23 | 91 | 1008.9 |
| 20260507001050 | 65 | 0 | 0.0 | 3.5 | 0.00 | 0.23 | 0.23 | 91 | 1008.7 |
| 20260507000551 | 65 | 288 | 0.0 | 3.5 | 0.00 | 0.23 | 0.23 | 92 | 1008.5 |
| 20260507000054 | 65 | 0 | 0.0 | 3.5 | 0.00 | 0.23 | 0.23 | 92 | 1008.2 |
| 20260506235549 | 65 | 0 | 0.0 | 1.7 | 0.01 | 0.23 | 0.23 | 92 | 1008.3 |
| 20260506235052 | 65 | 0 | 0.0 | 2.6 | 0.01 | 0.23 | 0.23 | 92 | 1008.2 |
| 20260506234555 | 65 | 0 | 0.0 | 2.6 | 0.01 | 0.23 | 0.23 | 92 | 1008.0 |
| 20260506234051 | 65 | 0 | 0.0 | 1.7 | 0.01 | 0.23 | 0.23 | 92 | 1008.2 |
| 20260506233548 | 65 | 0 | 0.0 | 1.7 | 0.01 | 0.23 | 0.23 | 91 | 1008.1 |
| 20260506233052 | 65 | 0 | 0.0 | 1.7 | 0.01 | 0.23 | 0.23 | 91 | 1008.2 |
| 20260506232551 | 65 | 0 | 0.0 | 1.7 | 0.01 | 0.23 | 0.23 | 91 | 1008.2 |
| 20260506232048 | 65 | 0 | 0.0 | 1.7 | 0.01 | 0.23 | 0.23 | 91 | 1008.2 |
| 20260506231551 | 66 | 0 | 0.0 | 1.7 | 0.01 | 0.23 | 0.23 | 90 | 1008.1 |
| 20260506231049 | 66 | 0 | 0.0 | 3.5 | 0.01 | 0.23 | 0.23 | 90 | 1008.1 |
| 20260506230549 | 66 | 0 | 0.0 | 3.5 | 0.01 | 0.23 | 0.23 | 89 | 1008.1 |
| 20260506230055 | 66 | 286 | 0.0 | 0.9 | 0.01 | 0.23 | 0.23 | 88 | 1008.0 |
| 20260506225551 | 66 | 0 | 0.0 | 0.9 | 0.00 | 0.22 | 0.22 | 88 | 1008.1 |
| 20260506225048 | 67 | 0 | 0.0 | 0.9 | 0.00 | 0.22 | 0.22 | 88 | 1008.0 |
| 20260506224603 | 67 | 0 | 0.0 | 1.7 | 0.00 | 0.22 | 0.22 | 87 | 1008.1 |
| 20260506224048 | 67 | 0 | 0.0 | 2.6 | 0.00 | 0.22 | 0.22 | 87 | 1008.0 |
| 20260506223548 | 67 | 0 | 0.0 | 2.6 | 0.00 | 0.22 | 0.22 | 87 | 1008.0 |
| 20260506223055 | 67 | 0 | 0.0 | 1.7 | 0.00 | 0.22 | 0.22 | 86 | 1008.0 |
| 20260506222552 | 67 | 0 | 0.0 | 2.6 | 0.00 | 0.22 | 0.22 | 86 | 1008.0 |
| 20260506222049 | 67 | 273 | 0.0 | 5.2 | 0.00 | 0.22 | 0.22 | 85 | 1008.1 |
| 20260506221554 | 67 | 0 | 0.9 | 5.2 | 0.00 | 0.22 | 0.22 | 85 | 1008.1 |
| 20260506221048 | 67 | 0 | 0.0 | 2.6 | 0.00 | 0.22 | 0.22 | 85 | 1007.9 |
| 20260506220552 | 67 | 0 | 0.0 | 2.6 | 0.00 | 0.22 | 0.22 | 85 | 1007.8 |
| 20260506220055 | 67 | 0 | 0.0 | 2.6 | 0.00 | 0.22 | 0.22 | 84 | 1007.6 |
| 20260506215550 | 67 | 257 | 0.0 | 3.5 | 0.00 | 0.22 | 0.22 | 85 | 1007.6 |
| 20260506215048 | 68 | 218 | 0.0 | 3.5 | 0.00 | 0.22 | 0.22 | 84 | 1007.5 |
| 20260506214607 | 68 | 0 | 0.9 | 3.5 | 0.00 | 0.22 | 0.22 | 83 | 1007.6 |
| 20260506214049 | 68 | 210 | 0.9 | 3.5 | 0.00 | 0.22 | 0.22 | 83 | 1007.6 |
| 20260506213551 | 68 | 0 | 0.0 | 3.5 | 0.00 | 0.22 | 0.22 | 82 | 1007.6 |
| 20260506213053 | 68 | 0 | 0.9 | 4.3 | 0.00 | 0.22 | 0.22 | 82 | 1007.6 |
| 20260506212551 | 68 | 0 | 0.0 | 7.8 | 0.00 | 0.22 | 0.22 | 82 | 1007.5 |
| 20260506212050 | 69 | 0 | 0.0 | 7.8 | 0.00 | 0.22 | 0.22 | 83 | 1007.2 |
| 20260506211552 | 69 | 266 | 0.0 | 7.8 | 0.00 | 0.22 | 0.22 | 82 | 1007.2 |
| 20260506211048 | 69 | 277 | 0.9 | 7.8 | 0.00 | 0.22 | 0.22 | 81 | 1007.3 |
| 20260506210550 | 69 | 252 | 1.7 | 7.8 | 0.00 | 0.22 | 0.22 | 80 | 1007.2 |
| 20260506210057 | 69 | 224 | 0.9 | 6.1 | 0.00 | 0.22 | 0.22 | 82 | 1007.0 |
| 20260506205550 | 69 | 223 | 0.9 | 5.2 | 0.00 | 0.22 | 0.22 | 82 | 1006.9 |
| 20260506205052 | 68 | 280 | 0.0 | 5.2 | 0.00 | 0.22 | 0.22 | 82 | 1007.0 |
| 20260506204610 | 69 | 222 | 0.9 | 5.2 | 0.00 | 0.22 | 0.22 | 82 | 1007.0 |
| 20260506204047 | 68 | 0 | 0.0 | 6.1 | 0.00 | 0.22 | 0.22 | 83 | 1007.0 |
| 20260506203548 | 68 | 290 | 0.9 | 7.8 | 0.00 | 0.22 | 0.22 | 83 | 1007.0 |
| 20260506203056 | 68 | 275 | 1.7 | 7.8 | 0.00 | 0.22 | 0.22 | 82 | 1007.1 |
| 20260506202551 | 68 | 209 | 1.7 | 7.0 | 0.00 | 0.22 | 0.22 | 83 | 1007.1 |
| 20260506202051 | 68 | 248 | 0.0 | 3.5 | 0.00 | 0.22 | 0.22 | 83 | 1007.1 |
| 20260506201558 | 68 | 0 | 0.0 | 2.6 | 0.00 | 0.22 | 0.22 | 84 | 1007.1 |
| 20260506201052 | 67 | 0 | 0.0 | 2.6 | 0.00 | 0.22 | 0.22 | 84 | 1007.0 |
| 20260506200551 | 67 | 0 | 0.0 | 3.5 | 0.00 | 0.22 | 0.22 | 84 | 1007.2 |
| 20260506200052 | 67 | 294 | 0.9 | 6.1 | 0.00 | 0.22 | 0.22 | 84 | 1007.3 |
| 20260506195551 | 67 | 259 | 0.9 | 6.1 | 0.00 | 0.22 | 0.22 | 84 | 1007.2 |
| 20260506195054 | 67 | 254 | 0.9 | 7.0 | 0.00 | 0.22 | 0.22 | 84 | 1007.2 |
| 20260506194606 | 67 | 250 | 0.9 | 7.0 | 0.00 | 0.22 | 0.22 | 84 | 1007.3 |
| 20260506194051 | 67 | 204 | 0.9 | 5.2 | 0.00 | 0.22 | 0.22 | 83 | 1007.3 |
| 20260506193551 | 67 | 0 | 0.0 | 8.7 | 0.00 | 0.22 | 0.22 | 84 | 1007.3 |
| 20260506193057 | 67 | 0 | 1.7 | 8.7 | 0.00 | 0.22 | 0.22 | 86 | 1007.4 |
| 20260506192550 | 66 | 0 | 1.7 | 8.7 | 0.00 | 0.22 | 0.22 | 85 | 1007.3 |
| 20260506192050 | 66 | 236 | 0.9 | 9.6 | 0.00 | 0.22 | 0.22 | 86 | 1007.4 |
| 20260506191554 | 66 | 232 | 1.7 | 9.6 | 0.00 | 0.22 | 0.22 | 86 | 1007.4 |
| 20260506191052 | 66 | 227 | 0.9 | 8.7 | 0.00 | 0.22 | 0.22 | 87 | 1007.5 |
| 20260506190551 | 66 | 252 | 0.0 | 7.0 | 0.00 | 0.22 | 0.22 | 87 | 1007.4 |
| 20260506190053 | 66 | 269 | 0.9 | 10.4 | 0.00 | 0.22 | 0.22 | 87 | 1007.5 |
| 20260506185623 | 65 | 194 | 1.7 | 10.4 | 0.00 | 0.22 | 0.22 | 87 | 1007.5 |
| 20260506185050 | 65 | 225 | 0.0 | 9.6 | 0.00 | 0.22 | 0.22 | 86 | 1007.5 |
| 20260506184557 | 66 | 203 | 0.9 | 7.0 | 0.00 | 0.22 | 0.22 | 87 | 1007.5 |
| 20260506184051 | 65 | 226 | 0.0 | 5.2 | 0.00 | 0.22 | 0.22 | 89 | 1007.6 |
| 20260506183552 | 65 | 186 | 0.0 | 5.2 | 0.00 | 0.22 | 0.22 | 90 | 1007.6 |
| 20260506183106 | 64 | 251 | 0.9 | 7.8 | 0.00 | 0.22 | 0.22 | 91 | 1007.7 |
| 20260506182550 | 64 | 0 | 0.0 | 7.8 | 0.00 | 0.22 | 0.22 | 91 | 1007.7 |
| 20260506182051 | 63 | 223 | 0.9 | 7.8 | 0.00 | 0.22 | 0.22 | 92 | 1007.9 |
| 20260506181551 | 63 | 237 | 0.0 | 5.2 | 0.00 | 0.22 | 0.22 | 92 | 1008.0 |
| 20260506181051 | 63 | 206 | 0.9 | 5.2 | 0.00 | 0.22 | 0.22 | 93 | 1008.1 |
| 20260506180551 | 62 | 0 | 0.0 | 4.3 | 0.00 | 0.22 | 0.22 | 93 | 1008.1 |
| 20260506180054 | 62 | 0 | 0.0 | 6.1 | 0.00 | 0.22 | 0.22 | 93 | 1008.1 |
| 20260506175549 | 62 | 0 | 0.9 | 6.1 | 0.00 | 0.22 | 0.22 | 93 | 1008.2 |
| 20260506175051 | 62 | 217 | 0.9 | 7.0 | 0.00 | 0.22 | 0.22 | 93 | 1008.2 |
| 20260506174556 | 62 | 213 | 0.9 | 7.0 | 0.00 | 0.22 | 0.22 | 93 | 1008.3 |
| 20260506174050 | 61 | 223 | 0.9 | 5.2 | 0.00 | 0.22 | 0.22 | 93 | 1008.4 |
| 20260506173551 | 61 | 200 | 0.0 | 8.7 | 0.00 | 0.22 | 0.22 | 94 | 1008.3 |
| 20260506173054 | 61 | 221 | 0.9 | 8.7 | 0.00 | 0.22 | 0.22 | 93 | 1008.1 |
| 20260506172548 | 61 | 233 | 0.0 | 8.7 | 0.00 | 0.22 | 0.22 | 94 | 1008.2 |
| 20260506172048 | 61 | 213 | 0.9 | 8.7 | 0.00 | 0.22 | 0.22 | 94 | 1008.1 |
| 20260506171558 | 61 | 254 | 1.7 | 7.8 | 0.00 | 0.22 | 0.22 | 94 | 1008.1 |
| 20260506171048 | 61 | 210 | 0.0 | 7.0 | 0.00 | 0.22 | 0.22 | 95 | 1008.2 |
| 20260506170548 | 61 | 147 | 0.9 | 7.0 | 0.00 | 0.22 | 0.22 | 95 | 1008.1 |
| 20260506170107 | 61 | 217 | 0.9 | 7.0 | 0.00 | 0.22 | 0.22 | 95 | 1008.0 |
| 20260506165550 | 61 | 180 | 0.9 | 6.1 | 0.00 | 0.22 | 0.22 | 96 | 1007.9 |
| 20260506165048 | 61 | 0 | 0.0 | 6.1 | 0.00 | 0.22 | 0.22 | 96 | 1008.0 |
| 20260506164600 | 61 | 142 | 0.0 | 7.0 | 0.00 | 0.22 | 0.22 | 96 | 1008.0 |
| 20260506164050 | 61 | 214 | 0.9 | 12.2 | 0.01 | 0.22 | 0.22 | 96 | 1007.9 |
| 20260506163550 | 61 | 194 | 0.9 | 12.2 | 0.01 | 0.22 | 0.22 | 96 | 1008.1 |
| 20260506163100 | 60 | 189 | 0.9 | 8.7 | 0.01 | 0.22 | 0.22 | 96 | 1008.1 |
| 20260506162548 | 61 | 186 | 0.9 | 10.4 | 0.02 | 0.22 | 0.22 | 96 | 1008.1 |
| 20260506162051 | 61 | 203 | 0.9 | 10.4 | 0.02 | 0.22 | 0.22 | 96 | 1008.3 |
| 20260506161604 | 61 | 185 | 0.0 | 4.3 | 0.03 | 0.22 | 0.22 | 96 | 1008.5 |
| 20260506161052 | 61 | 238 | 0.9 | 4.3 | 0.04 | 0.22 | 0.22 | 96 | 1008.4 |
| 20260506160550 | 61 | 0 | 0.9 | 8.7 | 0.04 | 0.22 | 0.22 | 96 | 1008.2 |
| 20260506160055 | 61 | 192 | 0.9 | 8.7 | 0.05 | 0.22 | 0.22 | 96 | 1008.3 |
| 20260506155548 | 61 | 196 | 0.9 | 8.7 | 0.06 | 0.22 | 0.22 | 96 | 1008.1 |
| 20260506155052 | 61 | 185 | 0.9 | 7.0 | 0.06 | 0.22 | 0.22 | 97 | 1007.9 |
| 20260506154610 | 61 | 190 | 0.9 | 7.0 | 0.07 | 0.22 | 0.22 | 96 | 1007.9 |
| 20260506154051 | 61 | 0 | 0.9 | 7.0 | 0.07 | 0.21 | 0.21 | 96 | 1007.7 |
| 20260506153551 | 61 | 211 | 0.0 | 6.1 | 0.07 | 0.21 | 0.21 | 96 | 1007.9 |
| 20260506153100 | 61 | 0 | 0.0 | 6.1 | 0.07 | 0.20 | 0.20 | 96 | 1008.1 |
| 20260506152552 | 61 | 0 | 0.9 | 6.1 | 0.07 | 0.20 | 0.20 | 96 | 1008.5 |
| 20260506152052 | 61 | 163 | 0.9 | 3.5 | 0.08 | 0.20 | 0.20 | 96 | 1008.9 |
| 20260506151558 | 60 | 183 | 0.0 | 2.6 | 0.07 | 0.19 | 0.19 | 96 | 1009.0 |
| 20260506151051 | 60 | 192 | 0.0 | 6.1 | 0.06 | 0.18 | 0.18 | 96 | 1009.0 |
| 20260506150551 | 60 | 234 | 0.0 | 6.1 | 0.07 | 0.18 | 0.18 | 96 | 1009.1 |
| 20260506150054 | 60 | 0 | 0.9 | 6.1 | 0.08 | 0.17 | 0.17 | 96 | 1009.1 |
| 20260506145554 | 60 | 199 | 0.9 | 6.1 | 0.08 | 0.16 | 0.16 | 95 | 1009.1 |
| 20260506145052 | 60 | 202 | 0.0 | 5.2 | 0.09 | 0.16 | 0.16 | 95 | 1009.3 |
| 20260506144602 | 61 | 233 | 0.9 | 7.0 | 0.09 | 0.15 | 0.15 | 95 | 1009.4 |
| 20260506144052 | 61 | 232 | 0.9 | 7.0 | 0.09 | 0.14 | 0.14 | 95 | 1009.1 |
| 20260506143552 | 61 | 0 | 0.9 | 6.1 | 0.10 | 0.14 | 0.14 | 95 | 1008.9 |
| 20260506143056 | 61 | 0 | 0.9 | 6.1 | 0.09 | 0.13 | 0.13 | 95 | 1008.8 |
| 20260506142552 | 61 | 0 | 0.9 | 9.6 | 0.10 | 0.13 | 0.13 | 95 | 1008.8 |
| 20260506142051 | 61 | 0 | 0.9 | 9.6 | 0.09 | 0.12 | 0.12 | 95 | 1008.8 |
| 20260506141602 | 61 | 180 | 0.9 | 8.7 | 0.09 | 0.12 | 0.12 | 94 | 1008.7 |
| 20260506141054 | 61 | 195 | 0.9 | 7.0 | 0.09 | 0.12 | 0.12 | 94 | 1008.8 |
| 20260506140551 | 61 | 210 | 0.0 | 7.0 | 0.09 | 0.11 | 0.11 | 93 | 1008.7 |
| 20260506140112 | 61 | 218 | 0.0 | 2.6 | 0.07 | 0.09 | 0.09 | 93 | 1008.7 |
| 20260506135552 | 61 | 206 | 0.0 | 6.1 | 0.06 | 0.08 | 0.08 | 92 | 1008.8 |
| 20260506135051 | 61 | 173 | 0.0 | 7.0 | 0.05 | 0.06 | 0.06 | 91 | 1008.8 |
| 20260506134557 | 61 | 194 | 0.0 | 7.0 | 0.05 | 0.06 | 0.06 | 91 | 1008.8 |
| 20260506134053 | 61 | 221 | 0.9 | 7.0 | 0.04 | 0.05 | 0.05 | 91 | 1008.9 |
| 20260506133551 | 62 | 198 | 0.9 | 6.1 | 0.03 | 0.04 | 0.04 | 90 | 1008.8 |
| 20260506133102 | 62 | 232 | 0.0 | 4.3 | 0.03 | 0.04 | 0.04 | 90 | 1008.8 |
| 20260506132550 | 62 | 155 | 0.0 | 3.5 | 0.03 | 0.03 | 0.03 | 90 | 1008.8 |
| 20260506132052 | 62 | 0 | 0.0 | 1.7 | 0.03 | 0.03 | 0.03 | 89 | 1008.8 |
| 20260506131555 | 62 | 0 | 0.0 | 2.6 | 0.03 | 0.03 | 0.03 | 89 | 1008.7 |
| 20260506131054 | 62 | 0 | 0.0 | 2.6 | 0.03 | 0.03 | 0.03 | 89 | 1008.8 |
| 20260506130552 | 62 | 0 | 0.0 | 5.2 | 0.02 | 0.02 | 0.02 | 87 | 1008.8 |
| 20260506130053 | 62 | 0 | 0.0 | 5.2 | 0.02 | 0.02 | 0.02 | 87 | 1009.1 |
| 20260506125552 | 63 | 209 | 0.0 | 2.6 | 0.02 | 0.02 | 0.02 | 86 | 1009.0 |
| 20260506125051 | 63 | 0 | 0.0 | 3.5 | 0.01 | 0.01 | 0.01 | 86 | 1009.1 |
| 20260506124556 | 63 | 0 | 0.0 | 3.5 | 0.01 | 0.01 | 0.01 | 85 | 1009.1 |
| 20260506124051 | 63 | 232 | 0.0 | 1.7 | 0.01 | 0.01 | 0.01 | 86 | 1009.2 |
| 20260506123554 | 63 | 0 | 0.0 | 1.7 | 0.01 | 0.01 | 0.01 | 85 | 1009.1 |
| 20260506123052 | 63 | 198 | 0.0 | 1.7 | 0.01 | 0.01 | 0.01 | 84 | 1009.2 |
| 20260506122551 | 63 | 0 | 0.0 | 1.7 | 0.00 | 0.00 | 0.00 | 84 | 1009.3 |
| 20260506122050 | 63 | 226 | 0.0 | 2.6 | 0.00 | 0.00 | 0.00 | 84 | 1009.4 |
| 20260506121553 | 64 | 185 | 0.0 | 2.6 | 0.00 | 0.00 | 0.00 | 83 | 1009.4 |
| 20260506121051 | 64 | 0 | 0.0 | 1.7 | 0.00 | 0.00 | 0.00 | 83 | 1009.3 |
| 20260506120551 | 64 | 0 | 0.0 | 1.7 | 0.00 | 0.00 | 0.00 | 83 | 1009.2 |
| 20260506120052 | 64 | 171 | 0.0 | 4.3 | 0.00 | 0.00 | 0.00 | 83 | 1009.0 |
| 20260506115550 | 64 | 178 | 0.0 | 4.3 | 0.00 | 0.00 | 0.00 | 82 | 1009.0 |
| 20260506115051 | 64 | 0 | 0.0 | 4.3 | 0.00 | 0.00 | 0.00 | 81 | 1008.9 |
| 20260506114558 | 64 | 184 | 0.0 | 3.5 | 0.00 | 0.00 | 0.00 | 80 | 1008.7 |
| 20260506114051 | 64 | 234 | 0.0 | 3.5 | 0.00 | 0.00 | 0.00 | 80 | 1008.8 |
| 20260506113551 | 64 | 0 | 0.0 | 2.6 | 0.00 | 0.00 | 0.00 | 79 | 1008.6 |
| 20260506113059 | 64 | 185 | 0.0 | 2.6 | 0.00 | 0.00 | 0.00 | 80 | 1008.8 |
| 20260506112552 | 65 | 198 | 0.0 | 2.6 | 0.00 | 0.00 | 0.00 | 80 | 1008.8 |
| 20260506112052 | 65 | 217 | 0.0 | 3.5 | 0.00 | 0.00 | 0.00 | 79 | 1008.8 |
| 20260506111552 | 65 | 0 | 0.0 | 6.1 | 0.00 | 0.00 | 0.00 | 79 | 1008.6 |
| 20260506111051 | 65 | 233 | 0.0 | 6.1 | 0.00 | 0.00 | 0.00 | 78 | 1008.5 |
| 20260506110553 | 65 | 214 | 0.9 | 7.0 | 0.00 | 0.00 | 0.00 | 77 | 1008.5 |
| 20260506110058 | 65 | 219 | 0.9 | 7.0 | 0.00 | 0.00 | 0.00 | 77 | 1008.4 |
| 20260506105553 | 65 | 0 | 0.9 | 7.0 | 0.00 | 0.00 | 0.00 | 77 | 1008.3 |
| 20260506105050 | 65 | 0 | 0.0 | 6.1 | 0.00 | 0.00 | 0.00 | 77 | 1008.3 |
| 20260506104558 | 65 | 241 | 0.0 | 8.7 | 0.00 | 0.00 | 0.00 | 77 | 1008.3 |
| 20260506104050 | 65 | 194 | 0.9 | 9.6 | 0.00 | 0.00 | 0.00 | 77 | 1008.3 |
| 20260506103551 | 65 | 169 | 0.9 | 9.6 | 0.00 | 0.00 | 0.00 | 76 | 1008.3 |
| 20260506103100 | 65 | 0 | 0.9 | 8.7 | 0.00 | 0.00 | 0.00 | 76 | 1008.2 |
| 20260506102551 | 65 | 158 | 0.9 | 7.0 | 0.00 | 0.00 | 0.00 | 76 | 1008.1 |
| 20260506102051 | 66 | 245 | 0.0 | 7.8 | 0.00 | 0.00 | 0.00 | 76 | 1008.0 |
| 20260506101556 | 66 | 199 | 0.0 | 7.8 | 0.00 | 0.00 | 0.00 | 76 | 1008.0 |
| 20260506101051 | 65 | 172 | 1.7 | 7.8 | 0.00 | 0.00 | 0.00 | 76 | 1008.0 |
| 20260506100551 | 66 | 205 | 0.9 | 7.8 | 0.00 | 0.00 | 0.00 | 75 | 1007.9 |
| 20260506100056 | 66 | 205 | 0.9 | 8.7 | 0.00 | 0.00 | 0.00 | 75 | 1007.8 |
| 20260506095551 | 66 | 184 | 0.9 | 8.7 | 0.00 | 0.00 | 0.00 | 75 | 1007.9 |
| 20260506095051 | 66 | 186 | 0.0 | 7.8 | 0.00 | 0.00 | 0.00 | 75 | 1007.8 |
| 20260506094555 | 66 | 232 | 0.0 | 4.3 | 0.00 | 0.00 | 0.00 | 75 | 1007.8 |
| 20260506094050 | 65 | 185 | 0.0 | 7.0 | 0.00 | 0.00 | 0.00 | 75 | 1007.8 |
| 20260506093550 | 65 | 0 | 0.0 | 7.0 | 0.00 | 0.00 | 0.00 | 74 | 1007.8 |
| 20260506093052 | 66 | 174 | 0.0 | 3.5 | 0.00 | 0.00 | 0.00 | 74 | 1007.9 |
| 20260506092551 | 66 | 0 | 0.0 | 3.5 | 0.00 | 0.00 | 0.00 | 74 | 1007.9 |
| 20260506092051 | 66 | 0 | 0.0 | 2.6 | 0.00 | 0.00 | 0.00 | 74 | 1007.9 |
| 20260506091554 | 66 | 0 | 0.0 | 9.6 | 0.00 | 0.00 | 0.00 | 73 | 1008.0 |
| 20260506091051 | 66 | 162 | 0.0 | 9.6 | 0.00 | 0.00 | 0.00 | 73 | 1008.1 |
| 20260506090552 | 66 | 0 | 0.0 | 3.5 | 0.00 | 0.00 | 0.00 | 73 | 1008.2 |
| 20260506090051 | 66 | 0 | 0.0 | 3.5 | 0.00 | 0.00 | 0.00 | 73 | 1008.1 |
| 20260506085551 | 66 | 0 | 0.0 | 3.5 | 0.00 | 0.00 | 0.00 | 73 | 1008.1 |
| 20260506085051 | 66 | 164 | 0.0 | 7.8 | 0.00 | 0.00 | 0.00 | 73 | 1008.0 |
| 20260506084554 | 66 | 0 | 0.0 | 7.8 | 0.00 | 0.00 | 0.00 | 72 | 1008.1 |
| 20260506084051 | 66 | 190 | 0.9 | 7.8 | 0.00 | 0.00 | 0.00 | 72 | 1008.1 |
| 20260506083550 | 66 | 217 | 0.0 | 4.3 | 0.00 | 0.00 | 0.00 | 72 | 1008.1 |
| 20260506083055 | 66 | 172 | 0.0 | 4.3 | 0.00 | 0.00 | 0.00 | 72 | 1008.1 |
| 20260506082552 | 66 | 0 | 0.0 | 0.9 | 0.00 | 0.00 | 0.00 | 72 | 1008.0 |
| 20260506082051 | 66 | 0 | 0.0 | 5.2 | 0.00 | 0.00 | 0.00 | 71 | 1008.0 |
| 20260506081557 | 66 | 0 | 0.0 | 5.2 | 0.00 | 0.00 | 0.00 | 71 | 1008.1 |
| 20260506081052 | 66 | 160 | 0.0 | 4.3 | 0.00 | 0.00 | 0.00 | 70 | 1008.0 |
| 20260506080551 | 66 | 0 | 0.0 | 4.3 | 0.00 | 0.00 | 0.00 | 69 | 1008.1 |
| 20260506073054 | 67 | 0 | 0.0 | 2.6 | 0.00 | 0.00 | 0.00 | 67 | 1008.3 |
| 20260506072551 | 67 | 0 | 0.0 | 2.6 | 0.00 | 0.00 | 0.00 | 66 | 1008.3 |
| 20260506072051 | 67 | 0 | 0.0 | 1.7 | 0.00 | 0.00 | 0.00 | 65 | 1008.4 |
| 20260506071554 | 68 | 0 | 0.0 | 2.6 | 0.00 | 0.00 | 0.00 | 65 | 1008.4 |
| 20260506071051 | 68 | 0 | 0.0 | 2.6 | 0.00 | 0.00 | 0.00 | 64 | 1008.3 |
| 20260506070551 | 68 | 0 | 0.0 | 2.6 | 0.00 | 0.00 | 0.00 | 64 | 1008.4 |
| 20260506062050 | 69 | 188 | 0.0 | 6.1 | 0.00 | 0.00 | 0.00 | 62 | 1008.9 |
| 20260506061555 | 69 | 186 | 0.0 | 3.5 | 0.00 | 0.00 | 0.00 | 62 | 1008.9 |
| 20260506061053 | 69 | 226 | 0.0 | 3.5 | 0.00 | 0.00 | 0.00 | 61 | 1009.0 |